Hourly Data Report for September 05, 2020

OTTAWA INTL A
ONTARIO
Current Station Operator: NAVCAN

45°19'00.000" N
75°40'00.000" W
114.90 m
6106001
71628
YOW

Download Data

Hourly Data (September 2020)
Hourly Data Report for September 5, 2020
TIME Temp Definition
°C
Dew Point Definition
°C
Rel Hum Definition
%
Wind Dir Definition
10's deg

Wind Spd Definition
km/h
Visibility Definition
km
Stn Press Definition
kPa
Hmdx Definition


Wind Chill Definition


Weather Definition


00:00 11.1 8.4 83 24 10 24.1 100.28     LegendNANA
01:00 10.4 8.1 86 23 11 24.1 100.32     Clear
02:00 10.4 8.6 89 23 12 24.1 100.33     LegendNANA
03:00 10.1 8.6 90 24 10 24.1 100.38     LegendNANA
04:00 8.9 7.8 92 25 10 24.1 100.38     Clear
05:00 9.1 7.8 92 24 7 24.1 100.41     LegendNANA
06:00 9.7 8.7 94 23 11 24.1 100.48     LegendNANA
07:00 12.1 10.3 89 23 11 24.1 100.54     Clear
08:00 14.6 11.0 79 25 16 24.1 100.57     LegendNANA
09:00 16.2 8.9 61 26 24 24.1 100.59     LegendNANA
10:00 17.6 7.8 52 25 24 24.1 100.60     Mainly Clear
11:00 19.3 7.9 47 27 24 24.1 100.59     LegendNANA
12:00 20.0 7.2 43 27 18 24.1 100.53     LegendNANA
13:00 20.5 5.8 38 27 21 24.1 100.48     Mostly Cloudy
14:00 19.9 7.3 44 23 15 24.1 100.39     LegendNANA
15:00 15.2 11.8 80 34 25 24.1 100.48     LegendNANA
16:00 15.5 9.7 68 32 21 24.1 100.49     Rain Showers
17:00 13.7 11.0 83 27 19 24.1 100.54     Rain Showers
18:00 13.4 11.4 87 23 9 24.1 100.50     LegendNANA
19:00 12.0 10.4 90 22 7 24.1 100.50     Mostly Cloudy
20:00 12.7 11.0 89 25 11 24.1 100.58     Rain Showers
21:00 12.0 10.6 91 29 14 24.1 100.57     LegendNANA
22:00 12.1 10.8 92 21 11 24.1 100.58     Mostly Cloudy
23:00 11.3 10.7 96 28 6 24.1 100.57     LegendNANA

Notes on Data Quality.

Legend

  • E = Estimated
  • M = Missing
  • NA = Not Available*
  • [empty] = Indicates an unobserved value
Date modified: